Regional Weather Roundup
Issued by NWS Northern Indiana

Home | Current Version | Previous Version | Graphics & Text | Print | Product List | Glossary On
Versions: 1 2 3 4 5 6 7 8 9 10 11 12 13 14 15 16 17 18 19 20 21 22 23 24 25 26 27 28 29 30 31 32 33 34 35 36 37 38 39 40 41 42 43 44 45 46 47 48 49 50
662
ASUS43 KIWX 300100
RWRIWX

KIWX WEATHER ROUNDUP
NATIONAL WEATHER SERVICE NORTHERN INDIANA
900 PM EDT FRI APR 29 2016

NOTE: "FAIR" INDICATES FEW OR NO CLOUDS BELOW 12,000 FEET WITH NO
SIGNIFICANT WEATHER AND/OR OBSTRUCTIONS TO VISIBILITY.

* THESE STATIONS ARE NOT UNDER NWS QUALITY CONTROL. THEY ALSO MAY NOT
  REPORT WEATHER SUCH AS PRECIPITATION OR FOG.

INZ001>027-300200-
NORTHERN INDIANA

CITY           SKY/WX    TMP DP  RH WIND       PRES   REMARKS
GARY*          CLOUDY    43  43 100 N7        30.15R
SOUTH BEND     CLOUDY    48  45  89 W5        30.14R
ELKHART*       CLOUDY    52  46  82 CALM      30.13R
GOSHEN         CLOUDY    51  46  83 CALM      30.12R
ANGOLA*        CLOUDY    52  39  62 NE3       30.11R
FORT WAYNE     CLOUDY    53  45  74 CALM      30.12R

$$
INZ028>050-300200-
CENTRAL INDIANA

CITY           SKY/WX    TMP DP  RH WIND       PRES   REMARKS
LAFAYETTE      CLOUDY    51  45  79 NE7       30.10R
KOKOMO*        CLOUDY    54  45  71 N6        30.11R
MUNCIE*        CLOUDY    54  47  77 NE10      30.09R
INDIANAPOLIS   CLOUDY    59  47  64 N9        30.05R

$$
MIZ043>046-050>051-056>058-064>065-071>073-077>080-300200-
SOUTHWEST LOWER MICHIGAN

CITY           SKY/WX    TMP DP  RH WIND       PRES   REMARKS
BATTLE CREEK   CLOUDY    49  39  68 NE9       30.14R
BENTON HARBOR  CLOUDY    46  40  79 CALM      30.13R
COLDWATER*     CLOUDY    51  42  71 NE9       30.12R
HILLSDALE*     CLOUDY    49  41  71 E7        30.12R
HOLLAND        CLOUDY    50  40  68 E7        30.15S
GRAND RAPIDS   MOCLDY    49  40  71 E8        30.16R
KALAMAZOO      CLOUDY    50  39  66 NE5       30.14R
STURGIS*       CLOUDY    51  42  73 NE6       30.11R
THREE RIVERS*  CLOUDY    52  43  71 CALM      30.12R

$$
OHZ001>008-015>018-024>025-300200-
NORTHWEST OHIO

CITY           SKY/WX    TMP DP  RH WIND       PRES   REMARKS
DEFIANCE       CLOUDY    51  40  65 E10       30.12R
FINDLAY        CLOUDY    49  39  68 E9        30.11R
TOLEDO EXPRESS CLOUDY    48  39  71 E10       30.14R
TOLEDO METCALF CLOUDY    47  39  74 NE9       30.15R
LIMA           CLOUDY    49  43  80 E12       30.11R

$$
AND FOR LAKE MICHIGAN COASTAL AND OPEN LAKE BUOY OBSERVATIONS

STATION/POSITION TEMP    WIND        PRES    VSBY  WAVE
                 AIR SEA DIR/SP/G                  HT/PER
                 (F)     (DEG/KT/KT) (MB)    (MI)  (FT/S)
CALUMET HARBOR                       1019.9R
MICHIGAN CITY     42     360/  9/ 10   N/A
BURNS HARBOR      42      10/  8/ 10 1020.7
SAINT JOSEPH      44     360/  7/ 13 1020.0S
SOUTH LAKE BUOY   40 40   20/ 10/ 10 1020.5          1/ 4
4 MI NW BRIDGMAN  44 47                N/A           2/ 3

$$
&&




USA.gov is the U.S. government's official web portal to all federal, state and local government web resources and services.